Home > Weather > Senftenberg > Past weeks

Flag for Germany Past Weather in Senftenberg, Brandenburg, Germany — Yesterday and Last 2 Weeks

Now
70 °F

Clear.


Feels Like: 70 °F
Forecast: 69 / 89 °F
Wind: 2 mph from North

Location: Dresden-Klotzsche

Current Time: Jun 25, 2016 at 1:57:12 AM

Latest Report: Jun 25, 2016 at 1:20 AM


Visibility: 10 mi

Pressure: 29.98 "Hg

Humidity: 83%

Dew Point: 64 °F

Location of SenftenbergLocation

Past Weather in Senftenberg — Graph

°F

Senftenberg Temperature Yesterday

Maximum temperature yesterday: 91 °F (at 4:50 PM)
Minimum temperature yesterday: 64 °F (at 4:50 AM)
Average temperature yesterday: 80 °F

High & Low Weather Summary for the Past Weeks

 TemperatureHumidityPressure
High91 °F (Jun 24, 4:50 PM)100% (Jun 12, 10:20 PM)30.27 "Hg (Jun 12, 10:20 PM)
Low52 °F (Jun 16, 4:50 AM)29% (Jun 24, 2:20 PM)29.50 "Hg (Jun 14, 4:20 PM)
Average64 °F75%29.89 "Hg
* Reported Jun 10 12:20 AM — Jun 25 12:20 AM, Senftenberg, Weather by CustomWeather, © 2016

Note: Actual official high and low records may vary slightly from our data, if they occured in-between our weather recording intervals... More about our weather records

Advertising

Senftenberg Weather History for the Previous 24 Hours

Scroll right to see more
 ConditionsComfort  
Time TempWeatherWind HumidityBarometerVisibility
12:20 AM
Sat, Jun 25
77 °FClear.1 mph65%29.98 "Hg10 mi
11:50 PM
Fri, Jun 24
77 °FClear.No wind65%29.98 "Hg10 mi
11:20 PM77 °FClear.No wind61%29.98 "Hg10 mi
10:50 PM79 °FPassing clouds.3 mph58%29.98 "HgN/A
10:20 PM82 °FSunny.3 mph51%29.98 "Hg10 mi
9:50 PM82 °FSunny.1 mph48%29.98 "Hg10 mi
9:20 PM84 °FSunny.2 mph45%29.98 "Hg10 mi
8:50 PM86 °FSunny.5 mph43%29.98 "Hg10 mi
8:20 PM86 °FSunny.3 mph46%29.98 "Hg10 mi
7:50 PM88 °FPassing clouds.3 mph38%29.98 "HgN/A
7:20 PM90 °FSunny.6 mph33%30.01 "Hg10 mi
6:50 PM90 °FPassing clouds.5 mph33%29.98 "HgN/A
6:20 PM91 °FPassing clouds.7 mph32%29.98 "HgN/A
5:50 PM90 °FPassing clouds.8 mph31%29.98 "HgN/A
5:20 PM90 °FPassing clouds.9 mph29%30.01 "HgN/A
4:50 PM91 °FPassing clouds.10 mph32%30.01 "HgN/A
4:20 PM90 °FPassing clouds.8 mph31%30.01 "HgN/A
3:50 PM90 °FPassing clouds.5 mph31%30.01 "HgN/A
3:20 PM90 °FSunny.5 mph33%30.04 "Hg10 mi
2:50 PM90 °FSunny.5 mph29%30.04 "Hg10 mi
2:20 PM90 °FSunny.6 mph29%30.04 "Hg10 mi
1:50 PM90 °FPassing clouds.8 mph31%30.07 "HgN/A
1:20 PM88 °FPassing clouds.8 mph35%30.07 "HgN/A
12:50 PM88 °FPassing clouds.7 mph35%30.07 "HgN/A
12:20 PM88 °FSunny.8 mph35%30.09 "Hg10 mi
11:50 AM88 °FPassing clouds.8 mph38%30.09 "HgN/A
11:20 AM86 °FPassing clouds.6 mph43%30.09 "HgN/A
10:50 AM84 °FSunny.5 mph45%30.09 "Hg10 mi
10:20 AM84 °FPassing clouds.6 mph48%30.09 "HgN/A
9:50 AM82 °FPassing clouds.6 mph51%30.09 "HgN/A
9:20 AM81 °FPassing clouds.5 mph54%30.09 "HgN/A
8:50 AM77 °FSunny.7 mph65%30.09 "Hg10 mi
8:20 AM75 °FPassing clouds.6 mph69%30.09 "HgN/A
7:50 AM75 °FSunny.7 mph65%30.09 "Hg10 mi
7:20 AM72 °FSunny.2 mph69%30.09 "Hg10 mi
6:50 AM70 °FPassing clouds.3 mph73%30.09 "HgN/A
6:20 AM68 °FSunny.2 mph83%30.09 "Hg10 mi
5:50 AM66 °FSunny.2 mph78%30.09 "Hg10 mi
5:20 AM64 °FPassing clouds.3 mph83%30.09 "HgN/A
4:50 AM64 °FClear.1 mph83%30.09 "Hg10 mi
4:20 AM68 °FClear.6 mph73%30.09 "Hg10 mi
3:50 AM68 °FClear.3 mph69%30.09 "Hg10 mi
3:20 AM68 °FClear.6 mph69%30.09 "Hg10 mi
2:50 AM72 °FClear.10 mph61%30.09 "Hg10 mi
2:20 AM72 °FClear.9 mph61%30.09 "Hg10 mi
1:50 AM70 °FClear.7 mph69%30.09 "Hg10 mi
1:20 AM72 °FClear.5 mph65%30.09 "Hg10 mi
Weather by CustomWeather, © 2016

See weather overviewHow to use our weather pages